Location: Dappach
(48.9767°N, 9.6998°E)
Time: 04:21:51
(UTC+00:00)

COSMOS 2428 - Pass Details

Date: 20 August 2024
Orbit: 842 x 857 km, 70.9° (Epoch: 16 September)

Event Time Altitude Azimuth Distance (km) Brightness Sun altitude
Exits shadow 00:09:33 67° 283° (WNW) 923 2.8 -27.9°
Maximum altitude 00:09:50 68° 301° (WNW) 917 2.8 -27.9°
Drops below altitude 10° 00:15:32 10° 25° (NNE) 2,493 6.1 -27.7°
Sets 00:18:02 0° 28° (NNE) 3,435 7.1 -27.6°
